カタログに戻る

STARLINK-4633

運用中通信VLEO
NORAD 53964·PAYLOAD·🇺🇸 United States

打ち上げ Oct 5, 2022 から Vandenberg Space Force Base

Loading…

次のパス (今後24時間)

TLE

最新Source: CelesTrak SupGP

元期: Sep 15, 2026, 02:53 UTC

1 53964C 22125A   26258.12062500 -.00029729  00000+0 -87831-3 0  2586
2 53964  53.1583  86.6868 0001153  81.9756 195.9643 15.34406645    18

AllMySatでSTARLINK-4633をリアルタイム追跡

Download on the App Store